Weather reports worldwide

Advertisment
Shawbury, United Kingdom (3414): temperature & dewpoint: 18.01.2020 01:00:00 - 24.01.2020 01:00:00 (GMT)Shawbury, United Kingdom (3414): temperature -20cm & temperature -100cm: 18.01.2020 01:00:00 - 24.01.2020 01:00:00 (GMT)Shawbury, United Kingdom (3414): wind speed: 18.01.2020 01:00:00 - 24.01.2020 01:00:00 (GMT)Shawbury, United Kingdom (3414): wind direction: 18.01.2020 01:00:00 - 24.01.2020 01:00:00 (GMT)Shawbury, United Kingdom (3414): reduced air pressure: 18.01.2020 01:00:00 - 24.01.2020 01:00:00 (GMT)Shawbury, United Kingdom (3414): visibility: 18.01.2020 01:00:00 - 24.01.2020 01:00:00 (GMT)Shawbury, United Kingdom (3414): sunshine duration: 18.01.2020 01:00:00 - 24.01.2020 01:00:00 (GMT)Shawbury, United Kingdom (3414): precipitation: 18.01.2020 01:00:00 - 24.01.2020 01:00:00 (GMT)
Date & Time tt [°C] td [°C] tt -20cm [°C] tt -100cm [°C] ff [km/h] ff [kn] dd ppp [hPa] vv [km] sd [min] rr [mm]
24.01.2020 01:00:00 5,6 5,5 - - 8 4 WNW 1026,1 4,7 0 0,0
24.01.2020 00:00:00 5,4 5,4 - - 8 4 SW 1026,3 5 - 0,0
23.01.2020 23:00:00 5,2 5,2 - - 5 3 WNW 1027,0 2,7 0 0,2
23.01.2020 22:00:00 5,4 5,3 - - 8 4 WNW 1027,4 0,9 0 0,0
23.01.2020 21:00:00 5,4 5,4 - - 9 5 SW 1027,6 0,3 0 0,0
23.01.2020 20:00:00 5,5 5,4 - - 8 4 WSW 1028,1 0,2 0 0,0
23.01.2020 19:00:00 5,7 5,6 - - 4 2 SW 1028,5 0,2 0 0,0
23.01.2020 18:00:00 5,9 5,7 - - 2 1 NNE 1028,7 0,5 0 0,0
23.01.2020 17:00:00 5,8 5,6 - - 5 3 SW 1028,8 2,0 0 0,0
23.01.2020 16:00:00 6,2 5,9 - - 8 4 SW 1029,0 10 0 0,0
23.01.2020 15:00:00 6,6 6,4 - - 5 3 SW 1029,6 8 0 0,0
23.01.2020 14:00:00 6,6 6,5 - - 9 5 S 1030,1 10 0 0,0
23.01.2020 13:00:00 6,4 6,4 - - 11 6 WSW 1031,5 3,5 0 0,0
23.01.2020 12:00:00 6,5 6,5 - - 11 6 SW 1032,4 2,6 0 0,0
23.01.2020 11:00:00 6,4 6,3 - - 8 4 W 1033,0 2,2 0 0,0
23.01.2020 10:00:00 5,9 5,9 - - 9 5 W 1033,0 2,0 0 0,0
23.01.2020 09:00:00 5,8 5,7 6,2 7,0 9 5 W 1033,4 0,4 0 0,0
23.01.2020 08:00:00 5,7 5,7 - - 5 3 SW 1033,5 0,6 0 0,0
23.01.2020 07:00:00 5,7 5,7 - - 2 1 SW 1033,8 0,6 0 0,0
23.01.2020 06:00:00 5,6 5,6 - - 5 3 SW 1034,1 0,7 0 0,0
23.01.2020 05:00:00 5,6 5,5 - - 0 0 N 1034,5 1,5 0 0,0
23.01.2020 04:00:00 5,5 5,5 - - 2 1 W 1034,8 0,7 0 0,0
23.01.2020 03:00:00 5,7 5,6 - - 5 3 W 1035,5 0,5 0 0,2
23.01.2020 02:00:00 5,8 5,8 - - 2 1 E 1035,9 0,2 0 0,0
23.01.2020 01:00:00 6,1 6,0 - - 4 2 SE 1036,4 0,2 0 0,0
23.01.2020 00:00:00 6,1 6,0 - - 5 3 NE 1036,6 0,3 - 0,0
22.01.2020 23:00:00 6,2 6,1 - - 8 4 N 1036,8 0,3 0 0,0
22.01.2020 22:00:00 6,2 6,1 - - 5 3 NNW 1036,8 0,2 0 0,0
22.01.2020 21:00:00 6,2 6,1 - - 9 5 NNW 1036,9 0,5 0 0,0
22.01.2020 20:00:00 6,9 6,7 - - 5 3 NNW 1037,2 0,2 0 0,0
22.01.2020 19:00:00 7,3 7,1 - - 8 4 N 1037,2 0,2 0 0,0
22.01.2020 18:00:00 7,8 7,6 - - 4 2 NW 1037,4 5 0 0,0
22.01.2020 17:00:00 8,2 7,9 - - 11 6 N 1037,2 10 0 0,0
22.01.2020 16:00:00 8,6 8,5 - - 11 6 N 1037,3 7 0 0,0
22.01.2020 15:00:00 8,7 8,6 - - 11 6 NNW 1037,5 3,5 0 0,0
22.01.2020 14:00:00 8,6 8,5 - - 11 6 NNW 1037,8 2,0 0 0,0
22.01.2020 13:00:00 8,4 8,3 - - 13 7 N 1038,3 0,6 0 0,0
22.01.2020 12:00:00 8,4 8,3 - - 8 4 NNW 1038,7 0,2 0 0,0
22.01.2020 11:00:00 8,0 7,9 - - 8 4 NNW 1039,1 0,2 0 0,2
22.01.2020 10:00:00 7,8 7,6 - - 5 3 NNW 1038,7 0,2 0 0,0
22.01.2020 09:00:00 7,4 7,2 5,7 7,0 5 3 NW 1038,7 0,5 0 0,0
22.01.2020 08:00:00 6,9 6,7 - - 4 2 NNW 1038,5 1,5 0 0,0
22.01.2020 07:00:00 6,2 5,8 - - 4 2 NW 1038,4 1,5 0 0,0
22.01.2020 06:00:00 6,0 5,6 - - 9 5 W 1038,3 10 0 0,0
22.01.2020 05:00:00 5,9 5,5 - - 9 5 W 1038,6 11 0 0,0
22.01.2020 04:00:00 6,1 5,5 - - 9 5 W 1038,9 14 0 0,0
22.01.2020 03:00:00 6,0 5,4 - - 8 4 WNW 1039,3 14 0 0,0
22.01.2020 02:00:00 5,9 5,4 - - 9 5 W 1039,4 12 0 0,0
22.01.2020 01:00:00 5,3 5,0 - - 5 3 W 1039,9 7 0 0,0
22.01.2020 00:00:00 5,4 5,1 - - 5 3 W 1040,3 4,2 - 0,0
21.01.2020 23:00:00 6,3 5,9 - - 5 3 WNW 1040,4 2,4 0 0,0
21.01.2020 22:00:00 5,8 5,3 - - 4 2 NW 1040,3 3,6 0 0,0
21.01.2020 21:00:00 5,5 4,8 - - 8 4 WSW 1040,4 8 0 0,0
21.01.2020 20:00:00 5,5 4,8 - - 2 1 NE 1040,4 10 0 0,0
21.01.2020 19:00:00 5,6 4,9 - - 8 4 W 1040,1 10 0 0,0
21.01.2020 18:00:00 5,3 4,8 - - 4 2 W 1040,2 10 0 0,0
21.01.2020 17:00:00 5,1 4,7 - - 8 4 WNW 1040,3 10 0 0,0
21.01.2020 16:00:00 5,2 4,7 - - 11 6 W 1040,5 10 0 0,0
21.01.2020 15:00:00 5,1 4,4 - - 13 7 W 1041,0 5 0 0,0
21.01.2020 14:00:00 4,8 3,3 - - 15 8 W 1041,5 10 0 0,0
21.01.2020 13:00:00 4,6 2,9 - - 16 9 W 1042,2 10 0 0,0
21.01.2020 12:00:00 3,9 2,5 - - 13 7 WSW 1042,4 10 0 0,0
21.01.2020 11:00:00 2,8 1,8 - - 13 7 WSW 1042,7 10 0 0,0
21.01.2020 10:00:00 2,0 1,1 - - 11 6 SW 1042,8 10 0 0,0
21.01.2020 09:00:00 1,6 0,9 5,2 7,2 13 7 WSW 1042,7 10 0 0,0
21.01.2020 08:00:00 1,4 0,8 - - 13 7 SW 1042,5 10 0 0,0
21.01.2020 07:00:00 1,4 0,8 - - 16 9 W 1042,6 10 0 0,0
21.01.2020 06:00:00 1,4 0,8 - - 15 8 W 1042,6 10 0 0,0
21.01.2020 05:00:00 0,6 0,2 - - 15 8 W 1042,5 20 0 0,0
21.01.2020 04:00:00 1,3 0,9 - - 8 4 W 1042,5 20 0 0,0
21.01.2020 03:00:00 -0,3 -0,6 - - 2 1 NNW 1043,1 14 0 0,0
21.01.2020 02:00:00 -0,5 -0,8 - - 2 1 W 1043,6 8 0 0,0
21.01.2020 01:00:00 0,2 0,0 - - 8 4 WSW 1044,1 8 0 0,0
21.01.2020 00:00:00 -0,7 -1,2 - - 5 3 W 1044,9 12 - 0,0
20.01.2020 23:00:00 -0,9 -1,5 - - 5 3 W 1045,0 14 0 0,0
20.01.2020 22:00:00 0,9 0,4 - - 5 3 W 1045,5 10 0 0,0
20.01.2020 21:00:00 0,9 0,1 - - 9 5 W 1045,7 10 0 0,0
20.01.2020 20:00:00 2,1 1,2 - - 15 8 W 1045,8 30 0 0,0
20.01.2020 19:00:00 0,3 -0,7 - - 13 7 W 1045,9 30 0 0,0
20.01.2020 18:00:00 2,3 1,0 - - 11 6 W 1045,8 35 0 0,0
20.01.2020 17:00:00 4,1 2,5 - - 9 5 SW 1045,6 10 24 0,0
20.01.2020 16:00:00 7,4 3,2 - - 8 4 W 1045,5 10 60 0,0
20.01.2020 15:00:00 7,7 3,4 - - 9 5 WSW 1045,7 10 60 0,0
20.01.2020 14:00:00 7,9 3,8 - - 11 6 WSW 1046,2 30 60 0,0
20.01.2020 13:00:00 7,2 3,7 - - 8 4 SW 1047,2 25 60 0,0
20.01.2020 12:00:00 5,2 2,7 - - 2 1 E 1047,8 10 60 0,0
20.01.2020 11:00:00 3,8 2,7 - - 2 1 ESE 1048,5 10 60 0,0
20.01.2020 10:00:00 -0,4 -0,8 - - 2 1 E 1048,6 10 48 0,0
20.01.2020 09:00:00 -1,5 -1,7 5,5 7,5 4 2 WSW 1048,4 10 0 0,0
20.01.2020 08:00:00 -2,1 -2,5 - - 4 2 SSE 1048,3 10 0 0,0
20.01.2020 07:00:00 -1,9 -2,3 - - 2 1 NNE 1048,0 10 0 0,0
20.01.2020 06:00:00 -3,0 -3,6 - - 4 2 SW 1048,1 10 0 0,0
20.01.2020 05:00:00 -2,7 -3,3 - - 9 5 W 1048,1 15 0 0,0
20.01.2020 04:00:00 -2,0 -2,5 - - 9 5 WSW 1048,3 16 0 0,0
20.01.2020 03:00:00 -0,6 -1,0 - - 2 1 S 1048,7 17 0 0,0
20.01.2020 02:00:00 -2,1 -2,7 - - 4 2 SW 1048,9 10 0 0,0
20.01.2020 01:00:00 -1,7 -2,2 - - 2 1 SE 1048,9 14 0 0,0
20.01.2020 00:00:00 -0,3 -0,9 - - 2 1 S 1048,8 16 - 0,0
19.01.2020 23:00:00 -1,4 -2,2 - - 4 2 WSW 1048,5 9 0 0,0
19.01.2020 22:00:00 0,5 -0,1 - - 2 1 S 1048,7 12 0 0,0
19.01.2020 21:00:00 -0,2 -0,7 - - 2 1 SW 1048,5 9 0 0,0
19.01.2020 20:00:00 0,5 0,0 - - 4 2 SSW 1048,6 12 0 0,0
19.01.2020 19:00:00 0,1 -0,7 - - 2 1 NW 1048,6 17 0 0,0
19.01.2020 18:00:00 0,7 -0,3 - - 4 2 WSW 1048,0 18 0 0,0
19.01.2020 17:00:00 2,4 0,4 - - 4 2 SSW 1047,7 10 18 0,0
19.01.2020 16:00:00 5,0 1,3 - - 5 3 W 1047,2 17 60 0,0
19.01.2020 15:00:00 6,4 2,4 - - 5 3 W 1046,6 21 60 0,0
19.01.2020 14:00:00 6,3 2,3 - - 8 4 WSW 1046,5 21 60 0,0
19.01.2020 13:00:00 5,5 2,3 - - 5 3 SW 1046,4 23 60 0,0
19.01.2020 12:00:00 5,0 2,6 - - 8 4 SW 1046,7 10 54 0,2
19.01.2020 11:00:00 2,6 1,7 - - 2 1 NNW 1046,7 17 60 0,0
19.01.2020 10:00:00 -1,0 -1,3 - - 2 1 NW 1046,3 0,2 24 0,0
19.01.2020 09:00:00 -1,3 -1,5 6,0 7,7 4 2 S 1045,5 15 0 0,0
19.01.2020 08:00:00 -1,4 -1,8 - - 2 1 WSW 1044,7 16 0 0,0
19.01.2020 07:00:00 -1,6 -1,9 - - 4 2 WSW 1043,5 17 0 0,0
19.01.2020 06:00:00 -1,5 -1,8 - - 2 1 NNW 1042,6 12 0 0,0
19.01.2020 05:00:00 -2,3 -2,7 - - 5 3 W 1041,7 7 0 0,0
19.01.2020 04:00:00 -2,4 -3,0 - - 2 1 N 1040,9 13 0 0,0
19.01.2020 03:00:00 -0,2 -0,6 - - 8 4 WSW 1040,6 13 0 0,0
19.01.2020 02:00:00 -0,2 -0,8 - - 11 6 W 1039,9 17 0 0,0
19.01.2020 01:00:00 0,5 -0,3 - - 8 4 SW 1039,1 21 0 0,0
19.01.2020 00:00:00 2,7 1,2 - - 11 6 WNW 1038,3 10 - 0,0
18.01.2020 23:00:00 4,1 1,8 - - 16 9 NW 1037,0 10 0 0,0
18.01.2020 22:00:00 3,5 1,3 - - 13 7 WNW 1036,1 28 0 0,0
18.01.2020 21:00:00 3,4 0,8 - - 16 9 W 1035,4 29 0 0,0
18.01.2020 20:00:00 3,1 0,4 - - 9 5 WNW 1034,8 30 0 0,0
18.01.2020 19:00:00 3,1 0,1 - - 9 5 WNW 1034,2 30 0 0,0
18.01.2020 18:00:00 3,1 -0,1 - - 11 6 WNW 1033,2 10 0 0,0
18.01.2020 17:00:00 3,9 0,7 - - 11 6 W 1031,9 19 0 0,0
18.01.2020 16:00:00 4,6 1,0 - - 13 7 W 1031,2 26 0 0,0
18.01.2020 15:00:00 5,7 1,7 - - 13 7 W 1030,4 10 12 0,0
18.01.2020 14:00:00 6,2 2,2 - - 15 8 W 1029,6 10 36 0,0
18.01.2020 13:00:00 6,4 1,7 - - 15 8 W 1029,3 23 60 0,0
18.01.2020 12:00:00 5,3 1,0 - - 16 9 WSW 1028,5 28 60 0,0
18.01.2020 11:00:00 4,0 0,9 - - 18 10 W 1027,8 10 60 0,0
18.01.2020 10:00:00 1,9 0,2 - - 15 8 W 1027,3 26 42 0,0
18.01.2020 09:00:00 0,3 -1,1 6,7 7,7 16 9 W 1026,6 24 0 0,0
18.01.2020 08:00:00 2,0 -0,4 - - 21 11 W 1025,7 26 0 0,0
18.01.2020 07:00:00 1,7 -0,6 - - 18 10 W 1024,8 28 0 0,0
18.01.2020 06:00:00 -0,2 -1,7 - - 16 9 W 1024,3 27 0 0,0
18.01.2020 05:00:00 -0,1 -1,6 - - 15 8 W 1023,1 26 0 0,0
18.01.2020 04:00:00 2,2 -0,4 - - 16 9 W 1022,5 28 0 0,0
18.01.2020 03:00:00 2,3 0,0 - - 15 8 W 1022,1 28 0 0,0
18.01.2020 02:00:00 0,9 -0,4 - - 13 7 WSW 1021,4 25 0 0,0
18.01.2020 01:00:00 2,4 0,7 - - 13 7 W 1020,6 30 0 0,0

tt = temperature
td = dewpoint
tt -20cm = temperature -20cm
tt -100cm = temperature -100cm
ff = wind speed
dd = wind direction
ppp = reduced air pressure
vv = visibility
sd = sunshine duration
rr = precipitation

Next stations